GENESIS 2

Last updated on Sat Jul 05 2025 00:02:14 GMT+0000 (Coordinated Universal Time)

1 31789U 07028A 25185.57143013 .00121265 00000+0 53055-3 0 9997 2 31789 64.4734 327.5989 0024702 301.7517 58.1230 15.83616324996866
UTC large
Height (km)
Speed (km/s)
/
Latitude / Longitude
Inclination (degrees)
Orbital Period (minutes)
Azimuth
Elevation
Range (km)
Doppler Factor

Next 0 passes for location: London (51.5072 / 0.1276)

Sorry there are no passes over London.